Flight Track Log - Related Links

Times and Time Zones

All times are in EST time to prevent confusion due to time zone crossing. See the AAL2386 flight status page for this flight to view local times or setup timezone preferences in your user account.

Time Position Orientation Groundspeed Altitude Reporting Facility
EST Latitude Longitude Course Direction KTS MPH feet Rate Location/Type
Thu 12:55:40 AM 32.9000 -97.0333 360° North 158 182 1,400  Level Dallas / Fort Worth TRACON
Thu 12:56:28 AM 32.9333 -97.0333 360° North 200 230 3,100 2,444 Climbing Dallas / Fort Worth TRACON
Thu 12:57:28 AM 33.0000 -97.0000 23° Northeast 239 275 5,800 2,350 Climbing Dallas / Fort Worth TRACON
Thu 12:58:28 AM 33.0000 -96.9333 90° East 274 315 7,800 2,356 Climbing Dallas / Fort Worth TRACON
Thu 01:00:11 AM 32.8772 -96.9453 185° South 291 335 12,200 2,393 Climbing Fort Worth Center
Thu 01:01:11 AM 32.7844 -96.9675 191° South 336 387 14,300 2,700 Climbing Fort Worth Center
Thu 01:02:11 AM 32.6889 -96.9900 191° South 346 398 17,600 2,529 Climbing Fort Worth Center
Thu 01:03:12 AM 32.5958 -97.0136 192° South 342 394 19,400 1,736 Climbing Fort Worth Center
Thu 01:04:12 AM 32.4986 -97.0372 192° South 353 406 21,100 1,131 Climbing Fort Worth Center
Thu 01:05:14 AM 32.4006 -97.0603 191° South 364 419 21,700 446 Climbing Fort Worth Center
Thu 01:06:13 AM 32.2947 -97.0844 191° South 358 412 22,000 151 Climbing Fort Worth Center
Thu 01:07:13 AM 32.2169 -97.1028 191° South 351 404 22,000  Level Fort Worth Center
Thu 01:08:14 AM 32.1222 -97.1250 191° South 347 399 22,000  Level Fort Worth Center
Thu 01:09:14 AM 32.0244 -97.1472 191° South 356 410 22,000  Level Fort Worth Center
Thu 01:10:14 AM 31.9147 -97.1744 192° South 370 426 22,000  Level Fort Worth Center
Thu 01:11:15 AM 31.8122 -97.1972 191° South 370 426 22,000  Level Fort Worth Center
Thu 01:12:15 AM 31.7117 -97.2203 191° South 365 420 22,000  Level Fort Worth Center
Thu 01:13:17 AM 31.6094 -97.2458 192° South 366 421 22,000  Level Houston Center
Thu 01:14:18 AM 31.5092 -97.2681 191° South 363 418 22,000  Level Houston Center
Thu 01:15:18 AM 31.4103 -97.2908 191° South 359 413 22,000  Level Houston Center
Thu 01:16:18 AM 31.3111 -97.3153 192° South 360 414 22,000  Level Houston Center
Thu 01:17:18 AM 31.2119 -97.3383 191° South 361 415 22,000 -198 Level Houston Center
Thu 01:18:19 AM 31.1144 -97.3667 194° South 360 414 21,600 -1,388 Descending Houston Center
Thu 01:19:19 AM 31.0192 -97.3961 195° South 356 410 19,200 -2,300 Descending Houston Center
Thu 01:20:19 AM 30.9258 -97.4233 194° South 350 403 17,000 -2,300 Descending Houston Center
Thu 01:21:19 AM 30.8325 -97.4528 195° South 347 399 14,600 -1,835 Descending Houston Center
Thu 01:22:20 AM 30.7431 -97.4686 189° South 329 379 13,300 -1,289 Descending Houston Center
Thu 01:23:20 AM 30.6606 -97.4692 180° South 299 344 12,000 -1,350 Descending Houston Center
Thu 01:24:20 AM 30.5831 -97.4706 181° South 283 326 10,600 -1,800 Descending Houston Center
Thu 01:25:20 AM 30.5119 -97.4761 184° South 261 300 8,400 -2,000 Descending Houston Center
Thu 01:26:20 AM 30.4406 -97.4869 187° South 256 295 6,600 -1,190 Descending Houston Center
Thu 01:27:21 AM 30.3681 -97.4983 188° South 258 297 6,000 -843 Descending Houston Center
Thu 01:28:21 AM 30.3011 -97.5100 189° South 247 284 4,900 -1,350 Descending Houston Center
Thu 01:29:21 AM 30.2331 -97.5269 192° South 246 283 3,300 -900 Descending Houston Center
Thu 01:30:21 AM 30.1608 -97.5431 191° South 257 296 3,100 -450 Descending Houston Center
Thu 01:31:21 AM 30.1325 -97.5981 239° Southwest 200 230 2,400 -800 Descending Houston Center
Thu 01:32:21 AM 30.1342 -97.6444 272° West 161 185 1,500 -595 Descending Houston Center
Thu 01:33:22 AM 30.1600 -97.6631 328° Northwest 150 173 1,200 -295 Descending Houston Center

Login

Don't have an account? Register now (free) for customized features, flight alerts, and more!